{"data":{"norad_id":65598,"epoch":"2026-05-25T04:23:33.372960Z","epoch_age_seconds":59524,"freshness":"FRESH","line1":"1 65598U 25207G   26145.18302515 -.00006861  00000+0 -47205-3 0  9995","line2":"2 65598  97.4537 213.7307 0003046 165.0038 195.1280 15.05635708 39771","mean_motion":15.05635708,"eccentricity":0.0003046,"inclination_deg":97.4537,"raan_deg":213.7307,"arg_perigee_deg":165.0038,"mean_anomaly_deg":195.128,"bstar":-0.00047205,"rev_number":3977,"period_min":95.640664760323,"perigee_km":547.44481869769,"apogee_km":551.66516866024,"semimajor_km":6927.691993679,"source":"CELESTRAK","updated_at":"2026-05-25T13:38:20.853030Z"}}